Weather reports worldwide

Advertisment
Santander/Parayas, Spain (8021): temperature & dewpoint: 01.07.2020 20:00:00 - 07.07.2020 20:00:00 (CEST)Santander/Parayas, Spain (8021): wind speed: 01.07.2020 20:00:00 - 07.07.2020 20:00:00 (CEST)Santander/Parayas, Spain (8021): wind direction: 01.07.2020 20:00:00 - 07.07.2020 20:00:00 (CEST)Santander/Parayas, Spain (8021): reduced air pressure: 01.07.2020 20:00:00 - 07.07.2020 20:00:00 (CEST)Santander/Parayas, Spain (8021): visibility: 01.07.2020 20:00:00 - 07.07.2020 20:00:00 (CEST)
Date & Time tt [°C] td [°C] ff [km/h] ff [kn] dd ppp [hPa] vv [km]
07.07.2020 20:00:00 22,4 16,0 28 15 ENE 1018,7 20
07.07.2020 19:00:00 22,2 17,1 26 14 ENE 1018,7 -
07.07.2020 18:00:00 22,6 17,0 24 13 NE 1019,1 -
07.07.2020 17:00:00 22,7 17,2 28 15 NE 1019,5 25
07.07.2020 16:00:00 22,6 16,4 28 15 NE 1019,9 -
07.07.2020 15:00:00 22,2 15,8 28 15 NE 1020,1 -
07.07.2020 14:00:00 22,1 15,0 28 15 NE 1020,4 30
07.07.2020 13:00:00 22,0 14,7 24 13 NE 1020,6 -
07.07.2020 12:00:00 22,1 13,5 16 9 ENE 1021,2 -
07.07.2020 11:00:00 20,1 12,3 18 10 E 1021,5 30
07.07.2020 10:00:00 20,0 12,5 11 6 E 1021,9 -
07.07.2020 09:00:00 18,0 13,1 11 6 ESE 1021,8 -
07.07.2020 08:00:00 13,9 12,5 5 3 SSE 1022,0 25
07.07.2020 07:00:00 13,5 12,4 8 4 SSE 1022,1 -
07.07.2020 06:00:00 13,8 13,2 2 1 SSE 1022,4 -
07.07.2020 05:00:00 13,6 13,0 0 0 N 1023,0 -
07.07.2020 04:00:00 12,6 11,8 0 0 N 1023,3 -
07.07.2020 03:00:00 13,3 12,2 0 0 N 1023,9 -
07.07.2020 02:00:00 13,6 11,8 0 0 N 1024,3 -
07.07.2020 01:00:00 15,6 12,9 9 5 ESE 1024,8 -
07.07.2020 00:00:00 17,3 13,6 13 7 E 1025,1 -
06.07.2020 23:00:00 18,2 13,9 11 6 E 1025,3 12
06.07.2020 22:00:00 18,7 13,8 13 7 ENE 1024,9 -
06.07.2020 21:00:00 18,9 14,2 16 9 NE 1024,9 -
06.07.2020 20:00:00 19,2 14,5 16 9 NE 1025,0 12
06.07.2020 19:00:00 - - - - - - -
06.07.2020 18:00:00 19,7 14,9 16 9 NE 1025,5 -
06.07.2020 17:00:00 19,7 15,1 16 9 NE 1025,8 10
06.07.2020 16:00:00 19,7 15,2 15 8 NE 1026,0 -
06.07.2020 15:00:00 19,6 15,7 18 10 NE 1026,2 -
06.07.2020 14:00:00 19,7 16,2 16 9 NE 1026,2 10
06.07.2020 13:00:00 19,2 16,2 16 9 NE 1026,0 -
06.07.2020 12:00:00 18,9 17,0 16 9 ENE 1025,8 -
06.07.2020 11:00:00 18,6 17,6 16 9 ENE 1025,4 5
06.07.2020 10:00:00 18,4 17,9 18 10 NE 1025,2 -
06.07.2020 09:00:00 18,9 18,2 9 5 NE 1024,7 -
06.07.2020 08:00:00 18,5 18,0 0 0 N 1024,4 3,0
06.07.2020 07:00:00 18,5 18,2 2 1 N 1024,1 -
06.07.2020 06:00:00 18,5 18,2 9 5 N 1024,0 -
06.07.2020 05:00:00 18,6 18,1 9 5 WNW 1023,8 -
06.07.2020 04:00:00 19,3 18,5 5 3 W 1023,9 -
06.07.2020 03:00:00 19,3 18,3 8 4 W 1024,1 -
06.07.2020 02:00:00 19,6 18,3 9 5 WNW 1024,5 -
06.07.2020 01:00:00 20,2 17,4 4 2 W 1024,8 -
06.07.2020 00:00:00 20,2 17,2 8 4 WSW 1024,9 -
05.07.2020 23:00:00 20,1 17,5 9 5 WNW 1024,8 20
05.07.2020 22:00:00 20,0 17,4 8 4 NW 1023,9 -
05.07.2020 21:00:00 21,9 17,7 8 4 N 1023,3 -
05.07.2020 20:00:00 22,3 17,4 11 6 NNW 1023,2 20
05.07.2020 19:00:00 23,5 17,6 9 5 N 1023,1 -
05.07.2020 18:00:00 24,0 17,1 9 5 N 1023,4 -
05.07.2020 17:00:00 24,3 17,2 11 6 N 1023,7 30
05.07.2020 16:00:00 24,5 16,9 9 5 NNW 1023,5 -
05.07.2020 15:00:00 24,0 17,6 16 9 ENE 1023,4 -
05.07.2020 14:00:00 23,8 17,0 18 10 ENE 1023,5 30
05.07.2020 13:00:00 24,0 17,6 16 9 ENE 1023,4 -
05.07.2020 12:00:00 23,7 14,7 15 8 ENE 1023,4 -
05.07.2020 11:00:00 23,5 14,3 8 4 E 1023,6 30
05.07.2020 10:00:00 22,0 16,3 5 3 NE 1023,7 -
05.07.2020 09:00:00 19,8 15,9 0 0 N 1023,7 -
05.07.2020 08:00:00 17,7 16,4 0 0 N 1023,9 20
05.07.2020 07:00:00 14,7 13,9 0 0 N 1024,0 -
05.07.2020 06:00:00 14,7 13,7 0 0 N 1023,7 -
05.07.2020 05:00:00 15,4 14,4 4 2 SSW 1023,8 -
05.07.2020 04:00:00 15,7 14,6 0 0 N 1023,9 -
05.07.2020 03:00:00 16,3 14,8 0 0 N 1024,4 -
05.07.2020 02:00:00 16,6 15,1 0 0 N 1025,0 -
05.07.2020 01:00:00 16,8 15,0 0 0 N 1025,4 -
05.07.2020 00:00:00 17,6 14,7 0 0 N 1025,6 -
04.07.2020 23:00:00 18,2 14,9 0 0 N 1025,5 30
04.07.2020 22:00:00 19,8 15,0 4 2 E 1025,4 -
04.07.2020 21:00:00 21,8 15,4 9 5 ENE 1024,9 -
04.07.2020 20:00:00 22,2 15,6 13 7 ENE 1024,4 35
04.07.2020 19:00:00 22,7 15,7 15 8 ENE 1024,2 -
04.07.2020 18:00:00 22,7 15,5 15 8 ENE 1024,4 -
04.07.2020 17:00:00 22,5 15,7 16 9 ENE 1024,9 40
04.07.2020 16:00:00 22,6 16,4 18 10 ENE 1024,8 -
04.07.2020 15:00:00 22,8 16,6 18 10 ENE 1024,7 -
04.07.2020 14:00:00 22,5 16,4 16 9 ENE 1025,2 35
04.07.2020 13:00:00 22,4 16,4 15 8 ENE 1025,4 -
04.07.2020 12:00:00 22,4 16,2 13 7 ENE 1025,4 -
04.07.2020 11:00:00 22,4 15,4 8 4 NE 1025,0 30
04.07.2020 10:00:00 19,9 14,0 4 2 SSW 1025,2 -
04.07.2020 09:00:00 18,0 14,5 5 3 S 1025,2 -
04.07.2020 08:00:00 15,1 13,8 2 1 SSE 1024,9 30
04.07.2020 07:00:00 12,2 11,5 2 1 S 1024,8 -
04.07.2020 06:00:00 12,7 12,1 5 3 S 1024,7 -
04.07.2020 05:00:00 12,6 11,8 0 0 N 1024,7 -
04.07.2020 04:00:00 13,0 12,1 0 0 N 1024,7 -
04.07.2020 03:00:00 13,8 12,7 4 2 SSE 1025,2 -
04.07.2020 02:00:00 14,3 13,0 0 0 N 1025,5 -
04.07.2020 01:00:00 14,5 13,0 5 3 S 1025,8 -
04.07.2020 00:00:00 15,7 13,2 0 0 N 1025,8 -
03.07.2020 23:00:00 18,1 13,8 9 5 ENE 1025,6 25
03.07.2020 22:00:00 18,6 14,0 13 7 ENE 1025,0 -
03.07.2020 21:00:00 19,8 14,1 13 7 NE 1025,0 -
03.07.2020 20:00:00 20,1 14,5 16 9 NE 1025,0 25
03.07.2020 19:00:00 20,8 14,3 16 9 ENE 1024,8 -
03.07.2020 18:00:00 21,3 14,9 16 9 NE 1024,7 -
03.07.2020 17:00:00 21,2 14,7 18 10 ENE 1024,8 25
03.07.2020 16:00:00 20,3 14,0 15 8 ENE 1025,1 -
03.07.2020 15:00:00 20,4 14,1 11 6 NNW 1025,2 -
03.07.2020 14:00:00 20,1 14,8 9 5 NNW 1025,6 25
03.07.2020 13:00:00 19,5 14,9 13 7 NW 1025,6 -
03.07.2020 12:00:00 20,2 14,4 9 5 NW 1025,5 -
03.07.2020 11:00:00 20,0 14,8 8 4 WNW 1025,2 20
03.07.2020 10:00:00 19,1 14,2 8 4 W 1025,0 -
03.07.2020 09:00:00 18,0 14,5 11 6 SW 1024,8 -
03.07.2020 08:00:00 16,1 13,9 9 5 SSW 1024,6 20
03.07.2020 07:00:00 15,4 13,6 8 4 SSW 1024,5 -
03.07.2020 06:00:00 15,1 13,5 9 5 SW 1024,3 -
03.07.2020 05:00:00 15,1 13,6 8 4 SW 1024,2 -
03.07.2020 04:00:00 15,0 13,7 5 3 SW 1024,6 -
03.07.2020 03:00:00 15,1 14,0 8 4 SW 1024,7 -
03.07.2020 02:00:00 15,3 14,0 11 6 SSW 1024,7 -
03.07.2020 01:00:00 15,5 14,2 8 4 SW 1024,9 -
03.07.2020 00:00:00 15,5 14,5 8 4 SSW 1024,7 -
02.07.2020 23:00:00 15,7 14,7 9 5 SSW 1024,4 15
02.07.2020 22:00:00 15,9 14,9 11 6 SW 1023,8 -
02.07.2020 21:00:00 16,1 14,8 5 3 WSW 1023,4 -
02.07.2020 20:00:00 16,4 15,1 9 5 WSW 1023,1 6
02.07.2020 19:00:00 17,2 14,5 11 6 SSW 1022,7 -
02.07.2020 18:00:00 17,6 14,5 15 8 W 1022,6 -
02.07.2020 17:00:00 18,3 14,7 11 6 W 1022,1 20
02.07.2020 16:00:00 17,4 15,9 5 3 SSW 1022,0 -
02.07.2020 15:00:00 17,7 15,8 4 2 S 1021,9 -
02.07.2020 14:00:00 16,7 15,7 4 2 N 1022,0 12
02.07.2020 13:00:00 17,5 14,8 11 6 WNW 1021,4 -
02.07.2020 12:00:00 17,6 15,0 4 2 WNW 1020,8 -
02.07.2020 11:00:00 16,4 15,8 8 4 S 1020,6 10
02.07.2020 10:00:00 15,3 14,8 11 6 W 1020,4 -
02.07.2020 09:00:00 15,9 15,6 4 2 SSW 1019,6 -
02.07.2020 08:00:00 15,7 15,4 13 7 SSW 1019,0 3,0
02.07.2020 07:00:00 15,7 15,4 0 0 N 1018,7 -
02.07.2020 06:00:00 15,8 15,5 8 4 W 1018,5 -
02.07.2020 05:00:00 16,0 15,7 9 5 SSW 1018,3 -
02.07.2020 04:00:00 16,1 15,9 8 4 SW 1018,4 -
02.07.2020 03:00:00 16,2 15,9 0 0 N 1018,6 -
02.07.2020 02:00:00 16,2 15,9 8 4 W 1018,8 -
02.07.2020 01:00:00 16,7 16,4 8 4 SSW 1018,9 -
02.07.2020 00:00:00 16,9 16,4 11 6 SW 1019,0 -
01.07.2020 23:00:00 16,9 16,3 9 5 NW 1018,8 3,5
01.07.2020 22:00:00 17,7 16,7 5 3 W 1018,2 -
01.07.2020 21:00:00 17,7 16,9 8 4 SSW 1018,0 -
01.07.2020 20:00:00 17,7 16,9 9 5 WNW 1017,7 18

tt = temperature
td = dewpoint
ff = wind speed
dd = wind direction
ppp = reduced air pressure
vv = visibility

Next stations